TimeCST,TemperatureF,Dew PointF,Humidity,Sea Level PressureIn,VisibilityMPH,Wind Direction,Wind SpeedMPH,Gust SpeedMPH,PrecipitationIn,Events,Conditions,WindDirDegrees,DateUTC
12:15 AM,-2.2,-5.8,85,30.15,-9999.0,Calm,Calm,-,N/A,,Unknown,0,2013-01-01 06:15:00
12:35 AM,-2.2,-5.8,85,30.14,-9999.0,West,3.5,-,N/A,,Unknown,270,2013-01-01 06:35:00
1:15 AM,-0.4,-4.0,85,30.13,-9999.0,WSW,6.9,-,N/A,,Unknown,250,2013-01-01 07:15:00
1:35 AM,-0.4,-4.0,85,30.12,-9999.0,WSW,9.2,-,N/A,,Unknown,240,2013-01-01 07:35:00
1:55 AM,-0.4,-4.0,85,30.13,-9999.0,West,5.8,-,N/A,,Unknown,260,2013-01-01 07:55:00
2:15 AM,-0.4,-4.0,85,30.13,-9999.0,West,4.6,-,N/A,,Unknown,260,2013-01-01 08:15:00
2:35 AM,-0.4,-4.0,85,30.13,-9999.0,West,10.4,-,N/A,,Unknown,260,2013-01-01 08:35:00
3:15 AM,-0.4,-2.2,92,30.11,-9999.0,West,8.1,-,N/A,Snow,Heavy Snow,280,2013-01-01 09:15:00
3:35 AM,1.4,-0.4,92,30.11,-9999.0,West,8.1,-,N/A,Snow,Heavy Snow,270,2013-01-01 09:35:00
3:55 AM,1.4,-0.4,92,30.10,4.0,WNW,4.6,-,N/A,Snow,Light Snow,290,2013-01-01 09:55:00
4:15 AM,1.4,-0.4,92,30.09,4.0,SSW,3.5,-,N/A,Snow,Light Snow,200,2013-01-01 10:15:00
4:35 AM,3.2,1.4,92,30.08,-9999.0,WSW,8.1,-,N/A,,Overcast,240,2013-01-01 10:35:00
5:15 AM,6.8,5.0,92,30.07,-9999.0,WSW,6.9,-,N/A,,Unknown,240,2013-01-01 11:15:00
5:35 AM,6.8,5.0,92,30.06,-9999.0,WSW,6.9,-,N/A,,Unknown,240,2013-01-01 11:35:00
5:55 AM,8.6,5.0,85,30.05,-9999.0,WSW,6.9,-,N/A,,Unknown,250,2013-01-01 11:55:00
6:15 AM,8.6,6.8,92,30.05,-9999.0,SW,5.8,-,N/A,,Unknown,220,2013-01-01 12:15:00
6:35 AM,8.6,6.8,92,30.04,-9999.0,WSW,5.8,-,N/A,,Overcast,240,2013-01-01 12:35:00
6:55 AM,12.2,10.4,92,30.04,-9999.0,SW,8.1,-,N/A,,Overcast,230,2013-01-01 12:55:00
7:15 AM,12.2,10.4,92,30.03,-9999.0,South,4.6,-,N/A,,Unknown,180,2013-01-01 13:15:00
7:35 AM,12.2,10.4,92,30.02,-9999.0,SE,4.6,-,N/A,,Unknown,140,2013-01-01 13:35:00
8:15 AM,15.8,14.0,93,30.00,-9999.0,WSW,8.1,-,N/A,,Overcast,240,2013-01-01 14:15:00
8:35 AM,14.0,14.0,100,30.00,-9999.0,WSW,9.2,-,N/A,,Unknown,240,2013-01-01 14:35:00
8:55 AM,14.0,12.2,93,30.00,-9999.0,SW,5.8,-,N/A,,Overcast,220,2013-01-01 14:55:00
9:15 AM,10.4,8.6,92,29.99,-9999.0,SW,8.1,-,N/A,,Unknown,230,2013-01-01 15:15:00
9:35 AM,10.4,8.6,92,29.99,-9999.0,WSW,8.1,-,N/A,,Unknown,240,2013-01-01 15:35:00
9:55 AM,10.4,8.6,92,29.98,-9999.0,West,6.9,-,N/A,,Unknown,260,2013-01-01 15:55:00
10:15 AM,10.4,6.8,85,29.98,-9999.0,WSW,6.9,-,N/A,,Unknown,240,2013-01-01 16:15:00
10:35 AM,8.6,6.8,92,29.97,-9999.0,SSW,3.5,-,N/A,,Unknown,200,2013-01-01 16:35:00
10:55 AM,10.4,6.8,85,29.96,10.0,WSW,4.6,-,N/A,,Clear,240,2013-01-01 16:55:00
11:15 AM,10.4,6.8,85,29.95,-9999.0,SW,5.8,-,N/A,,Unknown,230,2013-01-01 17:15:00
11:35 AM,14.0,10.4,86,29.94,-9999.0,WSW,9.2,16.1,N/A,,Unknown,250,2013-01-01 17:35:00
11:55 AM,14.0,10.4,86,29.93,-9999.0,WSW,6.9,-,N/A,,Unknown,250,2013-01-01 17:55:00
12:15 PM,14.0,8.6,79,29.94,-9999.0,West,3.5,-,N/A,,Clear,280,2013-01-01 18:15:00
12:35 PM,14.0,8.6,79,29.93,10.0,WSW,6.9,-,N/A,,Clear,250,2013-01-01 18:35:00
12:55 PM,14.0,8.6,79,29.92,-9999.0,SW,9.2,-,N/A,,Clear,230,2013-01-01 18:55:00
1:15 PM,14.0,8.6,79,29.91,-9999.0,WSW,5.8,-,N/A,,Clear,250,2013-01-01 19:15:00
1:35 PM,14.0,8.6,79,29.90,10.0,West,3.5,-,N/A,,Clear,260,2013-01-01 19:35:00
1:55 PM,14.0,8.6,79,29.88,10.0,WSW,5.8,-,N/A,,Clear,240,2013-01-01 19:55:00
2:15 PM,15.8,10.4,79,29.88,10.0,West,5.8,-,N/A,,Clear,260,2013-01-01 20:15:00
2:35 PM,17.6,10.4,73,29.87,-9999.0,SW,5.8,-,N/A,,Clear,230,2013-01-01 20:35:00
2:55 PM,17.6,12.2,79,29.86,-9999.0,WSW,11.5,-,N/A,,Partly Cloudy,240,2013-01-01 20:55:00
3:15 PM,17.6,12.2,79,29.85,-9999.0,WSW,10.4,-,N/A,,Partly Cloudy,240,2013-01-01 21:15:00
3:35 PM,15.8,12.2,86,29.84,-9999.0,SW,12.7,-,N/A,,Unknown,230,2013-01-01 21:35:00
4:15 PM,15.8,12.2,86,29.84,-9999.0,WSW,4.6,-,N/A,,Unknown,240,2013-01-01 22:15:00
4:35 PM,15.8,10.4,79,29.85,-9999.0,WSW,8.1,-,N/A,,Clear,250,2013-01-01 22:35:00
4:55 PM,14.0,10.4,86,29.84,-9999.0,WSW,8.1,18.4,N/A,,Unknown,250,2013-01-01 22:55:00
5:15 PM,15.8,10.4,79,29.83,-9999.0,SW,12.7,17.3,N/A,,Overcast,230,2013-01-01 23:15:00
5:35 PM,15.8,12.2,86,29.83,-9999.0,WSW,10.4,16.1,N/A,,Unknown,240,2013-01-01 23:35:00
5:55 PM,17.6,14.0,86,29.83,-9999.0,WSW,11.5,17.3,N/A,,Overcast,250,2013-01-01 23:55:00
6:15 PM,17.6,14.0,86,29.83,10.0,West,11.5,-,N/A,,Overcast,260,2013-01-02 00:15:00
6:35 PM,17.6,14.0,86,29.82,-9999.0,WSW,8.1,-,N/A,,Overcast,250,2013-01-02 00:35:00
6:55 PM,19.4,15.8,86,29.81,-9999.0,WSW,6.9,-,N/A,Snow,Heavy Snow,250,2013-01-02 00:55:00
7:15 PM,19.4,17.6,93,29.80,-9999.0,West,8.1,-,N/A,Snow,Heavy Snow,260,2013-01-02 01:15:00
7:35 PM,19.4,17.6,93,29.79,-9999.0,West,10.4,-,N/A,Snow,Heavy Snow,270,2013-01-02 01:35:00
7:55 PM,21.2,17.6,86,29.79,10.0,Calm,Calm,-,N/A,,Overcast,0,2013-01-02 01:55:00
8:15 PM,23.0,17.6,80,29.79,10.0,Calm,Calm,-,N/A,,Overcast,0,2013-01-02 02:15:00
8:35 PM,23.0,19.4,86,29.78,10.0,West,8.1,-,N/A,,Overcast,280,2013-01-02 02:35:00
8:55 PM,23.0,19.4,86,29.78,10.0,WNW,8.1,-,N/A,,Overcast,290,2013-01-02 02:55:00
9:15 PM,23.0,21.2,93,29.76,10.0,West,10.4,-,N/A,Snow,Light Snow,280,2013-01-02 03:15:00
9:35 PM,23.0,23.0,100,29.76,10.0,West,3.5,-,N/A,,Overcast,280,2013-01-02 03:35:00
9:55 PM,24.8,23.0,93,29.76,10.0,WNW,5.8,-,N/A,,Overcast,290,2013-01-02 03:55:00
10:15 PM,24.8,23.0,93,29.76,10.0,WNW,4.6,-,N/A,,Overcast,300,2013-01-02 04:15:00
10:35 PM,24.8,24.8,100,29.75,10.0,West,4.6,-,N/A,,Overcast,280,2013-01-02 04:35:00
10:55 PM,24.8,24.8,100,29.75,10.0,WNW,4.6,-,N/A,,Overcast,290,2013-01-02 04:55:00
11:15 PM,26.6,24.8,93,29.75,10.0,WNW,6.9,-,N/A,,Overcast,300,2013-01-02 05:15:00
11:35 PM,26.6,24.8,93,29.75,10.0,West,6.9,-,N/A,,Overcast,280,2013-01-02 05:35:00
11:55 PM,26.6,24.8,93,29.74,10.0,Calm,Calm,-,N/A,,Overcast,0,2013-01-02 05:55:00